Starlink 6051

operational
NORAD ID: 56463 Int'l Des: 2023-064 Owner: SPXS Country: US Constellation: starlink
LEOCIRCULAR

Starlink 6051について

説明を読み込み中...

リアルタイム位置

3D地球を読み込み中...

次回通過

高度履歴

Altitude vs Time

uPlot chart will show altitude changes over time

軌道要素

1 56463U 23064R 26035.84337486 .00000401 00000-0 41415-4 0 9992
2 56463 69.9987 227.3577 0002558 270.0638 90.0228 14.98329573150326
Epoch: Feb 4, 2026 • Age: 6 hours

現在のステータス

高度 586.2 km
速度 7.57 km/s
衛星直下点 -41.59°S, 100.46°W
打ち上げ日 May 10, 2023
運用期間 2.7 years
タイプ internet

技術仕様

分類 Payload
質量 305.00 kg
乾燥質量 290.00 kg
総質量 305.00 kg
長さ 0.20 m
直径 2.80 m
スパン 9.00 m
形状 Box + pan
製造者 SPXS
バスタイプ Starlink
フェーズステータス In Orbit
所有者/国 SPXS/US

大規模コンステレーション

Loading constellations...